www.pogodaiklimat.ru

Погода и климат >> Архив погоды >> Россия >> Якутия >> Верхоянск


АРХИВ ПОГОДЫ в Верхоянске

Время (UTC), дата Ветер
(напр.,м/с)
 
Видим.   Явления Облачность Т
(С)
Тd
(С)
f
(%)
Тe
(С)
Тes
(С)
Комфортность P
(гПа)
Po
(гПа)
Тmin
(С)
Tmax
(С)
R
(мм)
R24
(мм)
S
(см)
00 14.07 Ю 2 4000 м мгла ясно +18.3 +12.2 68 +19 +27 тепло 1005.3 989.3
03 14.07 Ю 3 2000 м мгла 10/0
[Cc]
+22.7 +13.2 55 +26 +33 жарко 1004.6 988.8
06 14.07 С 3 2000 м мгла 10/0
[Cs]
+22.9 +12.6 52 +26 +31 жарко 1005.0 989.2
09 14.07 С 5
{11}
20 км дым 4/4 1000 м
[Cb cap]
+22.7 +11.2 48 +25 +26 комфорт 1006.9 991.1 +24.4
12 14.07 СВ 5
{11}
50 км 8/1 1000 м
[Cb cap Ac trans]
+18.0 +9.4 57 +18 +18 по сезону 1010.6 994.5
15 14.07 СЗ 2
{10}
10 км дым 1/0
[Ac trans]
+13.2 +6.8 65 +13 +13 по сезону 1012.7 996.3
18 14.07 СВ 2 10 км дым 1/0
[Ci fib]
+10.4 +6.8 78 +9 +9 по сезону 1013.5 996.9
21 14.07 СВ 2 20 км дым 1/0
[Ac trans]
+14.0 +8.2 68 +14 +16 по сезону 1013.5 997.2 +9.2
00 15.07 СВ 2 20 км дым 1/1 1000 м
[Cu med, cong]
+17.6 +8.5 55 +18 +25 тепло 1013.2 997.1 +13.9
03 15.07 штиль 0 20 км дым 8/5 1000 м
[Cu med, cong Ci fib]
+20.2 +8.6 47 +21 +27 комфорт 1011.7 995.7
06 15.07 Ю 2 20 км дым 3/3 1000 м
[Cu med, cong]
+22.5 +8.9 42 +24 +29 комфорт 1010.5 994.6
09 15.07 СЗ 1 20 км дым 3/3 1000 м
[Cu med, cong]
+23.4 +8.6 39 +25 +27 комфорт 1009.5 993.7 +23.7
12 15.07 С 4 20 км дым 4/3 1000 м
[Sc Ac trans]
+19.9 +6.8 43 +21 +21 комфорт 1010.6 994.6
15 15.07 СВ 5 20 км дым 9/6 720 м
[Cb cap Ac trans]
+14.9 +6.2 56 +14 +14 по сезону 1013.3 997.0
18 15.07 С 2 20 км дым 6/1 1000 м
[Cb cap Ac trans]
+11.1 +3.0 57 +10 +10 по сезону 1014.6 998.0
21 15.07 СВ 1 10 км дым 6/0
[Ac trans]
+11.3 +3.6 59 +11 +13 прохладно 1015.0 998.4 +9.9
00 16.07 ЮВ 2 20 км дым 5/0
[Ac trans Ci fib]
+14.6 +4.0 49 +14 +21 прохладно 1014.5 998.1
03 16.07 ЮВ 2 20 км дым 6/0
[Ac trans Ci fib]
+18.3 +5.3 42 +19 +28 по сезону 1012.7 996.6
06 16.07 В 2 10 км дым 6/0
[Ac trans Ci fib]
+20.3 +5.0 37 +22 +28 комфорт 1010.7 994.7
09 16.07 С 2 4000 м мгла 6/0
[Ac trans Ci fib]
+20.6 +4.6 35 +22 +24 комфорт 1009.4 993.4 +21.0
12 16.07 СВ 4 2000 м мгла 8/0
[Ac trans Ci]
+17.5 +5.6 45 +17 +17 по сезону 1009.6 993.5
15 16.07 С 3 2000 м мгла 8/0
[Ac trans Ci fib]
+12.5 +4.3 57 +11 +11 прохладно 1009.7 993.3
18 16.07 СВ 2 1000 м мгла 8/0
[Ac trans Ci fib]
+8.3 +4.0 74 +7 +7 прохладно 1009.6 992.9
21 16.07 штиль 0 1000 м мгла 10/0
[Ac und]
+10.3 +5.5 72 +10 +11 прохладно 1008.6 992.1 +6.9
00 17.07 СВ 3 500 м мгла 10/3 1000 м
[Cb cap Ac trans]
+13.4 +6.5 63 +12 +14 прохладно 1007.4 991.1 +10.1
03 17.07 СВ 4 500 м мгла 10/3 1000 м
[Cb cap Ac trans]
+13.8 +8.4 70 +12 +14 холодно 1005.9 989.6
06 17.07 СВ 4 500 м мгла 10/3 1000 м
[Cb cap Ac trans]
+14.6 +9.2 70 +13 +15 очень
холодно
1004.7 988.5
09 17.07 СВ 4 1000 м мгла 10/5 1000 м
[Cb cap As op]
+14.0 +8.6 70 +13 +13 холодно 1004.5 988.2 +14.6 0.0
12 17.07 С 4 10 км дым {ливн. осадки} 10/5 1000 м
[Cb cap As op]
+12.6 +6.8 68 +11 +11 очень
холодно
1004.8 988.4
15 17.07 С 4
{14}
50 км 10/1 1000 м
[Cb cap Ac trans Cs]
+9.2 +3.4 67 +7 +7 холодно 1006.3 989.8
18 17.07 С 3
{12}
50 км 10/1
[Sc Ac trans Ci fib]
+6.3 +0.1 64 +4 +4 холодно 1008.2 991.5
21 17.07 С 5
{11}
50 км 9/9 930 м
[Sc]
+5.6 +0.7 71 +1 +1 очень
холодно
1009.8 993.0 +5.6
00 18.07 С 7-13
{13}
50 км 10/10 1080 м
[Sc]
+6.5 +0.7 66 +2 +2 очень
холодно
1011.3 994.5
03 18.07 С 5-11
{13}
50 км 10/10 1170 м
[Sc]
+7.3 +1.1 65 +4 +4 очень
холодно
1012.3 995.6
06 18.07 С 6-12
{13}
50 км 9/9 1300 м
[Sc]
+9.9 +2.1 58 +7 +7 очень
холодно
1013.1 996.5
09 18.07 С 3
{14}
20 км дым 10/0
[As trans]
+9.7 +1.9 58 +8 +9 очень
холодно
1014.5 997.8 +10.0
12 18.07 С 4
{10}
20 км дым 6/0
[Ac trans]
+8.8 +1.5 60 +6 +6 очень
холодно
1015.5 998.7
15 18.07 С 6-10
{11}
20 км дым 3/0
[Ci fib]
+6.4 +2.0 73 +2 +2 очень
холодно
1015.8 998.9
18 18.07 С 5
{10}
20 км дым 1/0
[Ac trans]
+5.7 +1.4 74 +1 +2 очень
холодно
1015.8 998.9
21 18.07 С 7-12
{13}
20 км дым 5/5 600 м
[Sc]
+7.4 +2.3 70 +3 +3 очень
холодно
1015.9 999.1 +5.4
00 19.07 С 7-13
{16}
20 км дым 6/4 1000 м
[Sc Ac trans]
+8.6 +2.1 64 +5 +6 очень
холодно
1016.1 999.3
03 19.07 С 6-11
{13}
20 км дым 9/4 1000 м
[Sc Ac trans Ci fib]
+10.7 +2.3 56 +8 +9 очень
холодно
1016.3 999.7
06 19.07 С 7-12
{14}
10 км дым 10/4 1000 м
[Sc Ac trans Ci fib]
+13.2 +3.6 52 +11 +11 очень
холодно
1015.7 999.3
09 19.07 С 7-12
{15}
10 км дым 10/3 1000 м
[Sc Ac trans Ci fib]
+13.9 +3.2 48 +12 +12 очень
холодно
1016.5 1000.1 +14.4
12 19.07 С 6-10
{14}
20 км дым 10/4 1000 м
[Sc Ac trans Ci fib]
+12.1 +3.0 54 +10 +10 очень
холодно
1018.1 1001.6
15 19.07 С 2
{10}
20 км дым 10/1 1000 м
[Sc Cs]
+7.7 +3.8 76 +6 +6 очень
холодно
1019.9 1003.0
18 19.07 СЗ 1 20 км дым 9/3 1000 м
[Sc Ac trans Ci fib]
+5.9 +2.7 80 +5 +5 прохладно 1021.3 1004.3
21 19.07 С 2 20 км дым 10/10 800 м
[Sc]
+7.1 +3.0 75 +5 +5 очень
холодно
1022.2 1005.3 +5.7
00 20.07 СЗ 2 20 км дым 10/10 700 м
[Sc]
+6.6 +3.0 78 +4 +4 очень
холодно
1022.4 1005.4 +6.4
03 20.07 Ю 1 20 км дым 10/0
[Cs]
+9.5 +3.8 68 +9 +19 опасность
простуды
1021.4 1004.7
06 20.07 Ю 2 10 км дым 5/0
[Ci fib]
+14.9 +5.5 53 +15 +22 холодно 1019.0 1002.5
09 20.07 С 1 1000 м мгла ясно +17.0 +4.0 42 +18 +21 прохладно 1017.4 1001.2 +17.2
12 20.07 З 1 1000 м мгла 8/0
[Ac trans Cs]
+13.1 +3.8 53 +14 +14 холодно 1017.2 1000.8
15 20.07 штиль 0 1000 м мгла 10/0
[Ac trans Cs]
+5.0 +1.7 79 +4 +4 очень
холодно
1017.8 1000.9
18 20.07 штиль 0 4000 м мгла 10/0
[Ac trans Cs]
+4.3 +2.0 85 +3 +3 холодно 1017.6 1000.6
21 20.07 ЮЗ 5 20 км дым 10/0
[Ac trans Cs]
+11.3 +4.0 61 +9 +10 прохладно 1016.3 999.7 +3.8

 

Местоположение метеостанции Верхоянск (Якутия, Россия): широта 67.57 долгота 133.40 высота над уровнем моря 136 м.

В архиве по умолчанию представлена погода в Верхоянске за последнюю неделю. Архивные данные за месяц целиком и за предыдущие месяцы, начиная с января 2011 года, Вы можете получить, выбрав интересующий диапазон дат из раскрывающегося списка и нажав кнопку "Ввод!".


*Определитесь, кто Вы:
робот инопланетянин человек

Внимание! Время в таблицах - всемирное. Для получения местного времени необходимо прибавить поправку, которая равна 10 ч.

Смотрите также архив погоды в соседних городах и на ближайших метеорологических станциях:

Погода в Батагае (Якутия, Россия) (52 км)
Погода в Екюччю (Якутия, Россия) (118 км)
Погода в Батагай-Алыте (Якутия, Россия) (129 км)
Погода в Усть-Чарках (Якутия, Россия) (162 км)
Погода в Иэме (Якутия, Россия) (274 км)
Погода в Усть-Куйге (Якутия, Россия) (284 км)
Погода в Себян-Кюеле (Якутия, Россия) (294 км)
Погода в Депутатском (Якутия, Россия) (329 км)
Погода в Юбилейной (Якутия, Россия) (373 км)
Погода в Джарджане (Якутия, Россия) (409 км)

Пояснения к столбцам:

Ветер - указаны скорость ветра в м/с - средняя за 10 мин, порывы в срок и между сроками (в фигурных скобках) и направление, откуда дует ветер: С - северный, СВ - северо-восточный, В - восточный, ЮВ - юго-восточный, Ю - южный, ЮЗ - юго-западный, З - западный, СЗ - северо-западный.
Видимость - горизонтальная дальность видимости в метрах или километрах. При видимости от 1 до 10 км при отсутствии осадков обычно наблюдается дымка, при ухудшении видимости до 1 км и менее - туман. В сухую погоду видимость может ухудшаться дымом, пылью или мглою.
Явления - указаны атмосферные явления, наблюдавшиеся в срок или в последний час перед сроком; фигурными скобками обозначены явления, наблюдавшиеся между сроками (за 1-3 часа до срока); квадратными скобками обозначены град или гололедные отложения с указанием их диаметра в мм.
Облачность - указаны через наклонную черту общая и нижняя облачность в баллах и высота нижней границы облаков в метрах; квадратными скобками обозначены формы облаков: Ci - перистые, Cs - перисто-слоистые, Cc - перисто-кучевые, Ac - высококучевые, As - высокослоистые, Sc - слоисто-кучевые, Ns - слоисто-дождевые, Cu - кучевые, Cb - кучево-дождевые. Подробнее классификацию облаков см. в Атласе облаков (PDF).
T - Температура воздуха - температура, измеренная на высоте 2 м над землей.
Td - Температура точки росы - температура, при понижении до которой содержащийся в воздухе водяной пар достигнет насыщения.
f - Относительная влажность воздуха - влажноcть воздуха, измеренная на высоте 2 м над землей.
Te - Эффективная температура - температура, которую ощущает одетый по сезону человек в тени. Характеристика душности погоды. При расчете учитывается влияние влажности воздуха и скорости ветра на теплоощущения человека.
Tes - Эффективная температура на солнце - температура, которую ощущает человек, с поправкой на солнечный нагрев. Характеристика знойности погоды. Зависит от высоты солнца над горизонтом, облачности и скорости ветра. Ночью, в пасмурную погоду, а также при ветре 12 м/с и более поправка равна нулю.
P - Атмосферное давление - приведенное к уровню моря атмосферное давление.
Po - Атмосферное давление - измеренное на уровне метеостанции атмосферное давление.
Tmin - Минимальная температура - минимум температуры воздуха на высоте 2 м над землей.
Tmax - Максимальная температура - максимум температуры воздуха на высоте 2 м над землей.
R - Количество осадков - Количество выпавших осадков за период времени, мм. При наведении курсора мыши на число - период времени, за который выпало указанное количество осадков.
R24 - Количество осадков - Количество выпавших осадков за 24 часа, мм.
S - Снежный покров - Высота снежного покрова, см. При наведении курсора мыши на число - состояние снежного покрова и степень покрытия местности в баллах.